Stove Prairie

Current Conditions

Time10/18/2019 08:00 AM MST
Location40.619167,-105.356944
Elevation7,349 FT
Air Temp50°F
Surface Temp41°F
Dew Point Temp24°F
Relative Humidity37%
Visibility6,562 FT
Pressure765 MB
PrecipitationNone

Click a photo to enlarge.

0 mph
Wind from @ 0 mph

Past 24 Hours

All Data

Previous 24h observations for Stove Prairie
Time Air Temp
(°F)
Surface
(°F)
Dew Point
(°F)
Relative
Humidity
Precip. Wind Direction Wind Speed (mph) Visibility (ft) Pressure
(mb)
08:00 AM50412437NoneN06,562765
07:45 AM50422436NoneNNE46,562764
07:30 AM50402437NoneNNE46,562764
07:15 AM51412435NoneWSW26,562764
07:00 AM52412433NoneSW26,562764
06:45 AM53432331NoneSSW46,562764
06:30 AM53442331NoneWNW46,562765
06:15 AM51412131NoneNNE16,562764
06:00 AM51402029NoneN26,562764
05:45 AM53402027NoneNNE46,562764
05:30 AM56422025NoneSSW26,562764
05:15 AM56422024NoneNNE26,562764
05:00 AM56431924NoneW36,562764
04:45 AM56421924NoneW26,562764
04:30 AM57442024NoneW46,562764
04:15 AM56422025NoneSW46,562764
04:00 AM56432125NoneS146,562764
03:45 AM57422125NoneS76,562764
03:30 AM57422225NoneS76,562764
03:15 AM58432225NoneSSE86,562764
03:00 AM56442226NoneSSW36,562764
02:45 AM57432125NoneSSW16,562764
02:30 AM56442024NoneSSW26,562764
02:15 AM57441923NoneE26,562764
02:00 AM57441922NoneW46,562764
01:45 AM57441922NoneWSW56,562764
01:30 AM56451922NoneW46,562764
01:15 AM56451923NoneNNW46,562765
01:00 AM56431924NoneNNE36,562765
12:45 AM56441923NoneN06,562765
12:30 AM55451823NoneS46,562766
12:15 AM55441621NoneN06,562766
12:00 AM56421520NoneWSW26,562766
11:45 PM56441419NoneS56,562766
11:30 PM56441318NoneS26,562767
11:15 PM56441217NoneSW36,562767
11:00 PM57421116NoneWSW26,562767
10:45 PM58431115NoneNW36,562767
10:30 PM58441015NoneNW56,562767
10:15 PM59461014NoneNW46,562767
10:00 PM56491016NoneWNW26,562767
09:45 PM5448916NoneN06,562767
09:30 PM52491019NoneESE16,562767
09:15 PM52471119NoneSSE26,562767
09:00 PM49481223NoneNE26,562767
08:45 PM49481324NoneE26,562767
08:30 PM48441324NoneNNW46,562767
08:15 PM53481321NoneNNW16,562767
08:00 PM52511624NoneN06,562767
07:45 PM50491625NoneNNW16,562767
07:30 PM51501827NoneNW26,562767
07:15 PM49491930NoneN26,562767
07:00 PM52512028NoneN16,562767
06:45 PM52472028NoneNNW26,562767
06:30 PM53512028NoneNNE26,562767
06:15 PM57532024NoneN06,562767
06:00 PM59552022NoneN06,562767
05:45 PM60581920NoneN06,562767
05:30 PM61581920NoneS26,562768
05:15 PM61591819NoneSSW26,562768
05:00 PM62611718NoneS76,562768
04:45 PM62601717NoneS76,562768
04:30 PM63601817NoneS46,562768
04:15 PM64641615NoneSSW26,562768
04:00 PM64651514NoneSSW36,562768
03:45 PM65661313NoneS56,562768
03:30 PM65671313NoneS86,562768
03:15 PM64661314NoneS56,562769
03:00 PM64681414NoneS56,562769
02:45 PM64691514NoneSSW46,562769
02:30 PM65701414NoneSSE86,562769
02:15 PM65691313NoneESE66,562769
02:00 PM66711212NoneE76,562769
01:45 PM66721212NoneE76,562769
01:30 PM67791312NoneE76,562769
01:15 PM6877810NoneS76,562770
01:00 PM6875910NoneSSW26,562770
12:45 PM6767810NoneSSW36,562771
12:30 PM6569911NoneNNW26,562771
12:15 PM6466911NoneN26,562771
12:00 PM63581012NoneNW26,562771
11:45 AM62571013NoneN06,562772
11:30 AM61541114NoneS36,562772
11:15 AM61541013NoneSSE46,562772
11:00 AM61541315NoneWSW26,562772
10:45 AM59531114NoneENE16,562772
10:30 AM59531115NoneNE26,562772
10:15 AM57521518NoneN06,562772
10:00 AM55501721NoneNNE26,562773
09:45 AM53491017NoneNNW16,562773
09:30 AM52461422NoneNNW26,562773
09:15 AM53461522NoneNNW36,562773
09:00 AM51451322NoneNW16,562773
08:45 AM48431021NoneNNW26,562773
08:30 AM5043818NoneWNW26,562773
08:15 AM4841819NoneNNE26,562773

Red Feather Lakes

Current Conditions

Time10/18/2019 08:00 AM MST
Location40.790278,-105.574167
Elevation8,238 FT
Air Temp42°F
Surface Temp39°F
Dew Point Temp23°F
Relative Humidity47%
Visibility6,562 FT
Pressure740 MB
PrecipitationNone

Click a photo to enlarge.

273°29 mph
Wind from @ 29 mph

Past 24 Hours

All Data

Previous 24h observations for Red Feather Lakes
Time Air Temp
(°F)
Surface
(°F)
Dew Point
(°F)
Relative
Humidity
Precip. Wind Direction Wind Speed (mph) Visibility (ft) Pressure
(mb)
08:00 AM42392347NoneW296,562740
07:45 AM42382447NoneW266,562740
07:30 AM43382447NoneW256,562740
07:15 AM43382447NoneW266,562740
07:00 AM43382447NoneW246,562739
06:45 AM44382446NoneW246,562739
06:30 AM44382547NoneW216,562740
06:15 AM45382545NoneSW116,562739
06:00 AM46382138NoneESE76,562740
05:45 AM47372135NoneENE126,562739
05:30 AM48382033NoneNNW116,562739
05:15 AM49382031NoneW176,562739
05:00 AM49402033NoneNNW116,562739
04:45 AM47382339NoneN46,562738
04:30 AM47372339NoneENE106,562738
04:15 AM51392029NoneWNW146,562739
04:00 AM52392028NoneW186,562739
03:45 AM52401927NoneW296,562739
03:30 AM52402028NoneW266,562739
03:15 AM53402027NoneWSW296,562739
03:00 AM53392027NoneW256,562739
02:45 AM53391926NoneW306,562739
02:30 AM53391926NoneW246,562739
02:15 AM53381926NoneW146,562739
02:00 AM53371825NoneW176,562739
01:45 AM53381825NoneWSW146,562740
01:30 AM50381828NoneENE66,562740
01:15 AM49391828NoneESE96,562740
01:00 AM49371627NoneENE36,562740
12:45 AM49401626NoneE56,562741
12:30 AM48381526NoneNNE86,562741
12:15 AM50371726NoneNE46,562741
12:00 AM52381624NoneWNW76,562741
11:45 PM52381421NoneWSW156,562741
11:30 PM52391120NoneWSW156,562742
11:15 PM4543923NoneWSW126,562742
11:00 PM4443823NoneNNW46,562742
10:45 PM4639821NoneNE26,562742
10:30 PM4045422NoneENE26,562742
10:15 PM40433222NoneWSW26,562742
10:00 PM3943423NoneWNW36,562743
09:45 PM40443222NoneW76,562743
09:30 PM3843423NoneW86,562743
09:15 PM42443221NoneW66,562743
09:00 PM4443419NoneW56,562743
08:45 PM44443219NoneW66,562743
08:30 PM4646418NoneW66,562743
08:15 PM45463218NoneW86,562743
08:00 PM4746416NoneW96,562743
07:45 PM48473216NoneW76,562743
07:30 PM4849315NoneW86,562743
07:15 PM47503215NoneW56,562743
07:00 PM5150213NoneW46,562743
06:45 PM56503212NoneSW56,562743
06:30 PM5851311NoneSW66,562743
06:15 PM59533211NoneSW106,562743
06:00 PM6054310NoneSW106,562743
05:45 PM61583210NoneSW196,562743
05:30 PM6161410NoneWSW236,562743
05:15 PM6263329NoneSW146,562743
05:00 PM6166410NoneWSW186,562744
04:45 PM62673210NoneWSW186,562744
04:30 PM6269410NoneSW166,562744
04:15 PM6269510NoneWSW176,562744
04:00 PM6272510NoneWSW166,562744
03:45 PM6271510NoneWSW196,562744
03:30 PM6270410NoneSW186,562744
03:15 PM62723210NoneSW216,562744
03:00 PM6273410NoneWSW166,562745
02:45 PM63733210NoneW246,562745
02:30 PM6375410NoneWSW196,562745
02:15 PM63723210NoneSW186,562745
02:00 PM6368510NoneSW216,562745
01:45 PM6266510NoneWSW206,562745
01:30 PM6260510NoneWSW246,562745
01:15 PM6257611NoneSW266,562745
01:00 PM6258711NoneWSW226,562745
12:45 PM6157812NoneWSW186,562746
12:30 PM6054712NoneWSW246,562746
12:15 PM5953712NoneSW166,562746
12:00 PM5852713NoneWSW186,562747
11:45 AM5752713NoneWNW156,562747
11:30 AM5853713NoneWSW126,562747
11:15 AM5851613NoneS56,562747
11:00 AM5851613NoneW136,562748
10:45 AM5851612NoneSW116,562748
10:30 AM57493212NoneSSW126,562748
10:15 AM57493212NoneSW166,562748
10:00 AM5648412NoneSW126,562748
09:45 AM56473212NoneWSW136,562748
09:30 AM55463213NoneWSW176,562748
09:15 AM56463212NoneWSW156,562748
09:00 AM5545413NoneWSW196,562748
08:45 AM54423213NoneWSW216,562748
08:30 AM5339313NoneSW156,562749
08:15 AM54383213NoneSW156,562749

Pinewood Reservoir

Current Conditions

Time10/18/2019 07:45 AM MST
Location40.3647,-105.2867
Elevation6,580 FT
Air Temp56°F
Surface Temp51°F
Dew Point Temp25°F
Relative Humidity30%
Visibility6,562 FT
Pressure780 MB
PrecipitationNone
Level of Grip82.0
State of Surface4.0

Click a photo to enlarge.

205°11 mph
Wind from @ 11 mph

Past 24 Hours

All Data

Previous 24h observations for Pinewood Reservoir
Time Air Temp
(°F)
Surface
(°F)
Dew Point
(°F)
Relative
Humidity
Precip. Wind Direction Wind Speed (mph) Visibility (ft) Pressure
(mb)
Level of GripState Surface
07:45 AM56512530NoneSSW116,562780824
07:30 AM56492530NoneWSW116,562780824
07:15 AM57492529NoneS86,562780824
07:00 AM57482428NoneSW76,562780824
06:45 AM58502427NoneW96,562780824
06:30 AM57492427NoneSW96,562780824
06:15 AM58492427NoneSW86,562780824
06:00 AM57492226NoneWSW216,562779824
05:45 AM58492326NoneWSW176,562780824
05:30 AM58502325NoneWSW156,562780824
05:15 AM54482027NoneSW96,562780824
05:00 AM55482126NoneSSW66,562780824
04:45 AM55482126NoneWSW66,562780824
04:30 AM58492124NoneW46,562780824
04:15 AM58502023NoneN106,562780824
04:00 AM59502022NoneNNE96,562780824
03:45 AM59512122NoneNNE86,562780824
03:30 AM58502022NoneNNE66,562780824
03:15 AM59501921NoneNNE36,562780824
03:00 AM59512022NoneSE106,562780824
02:45 AM58502325NoneSW86,562780824
02:30 AM60522323NoneWSW156,562780824
02:15 AM60522223NoneWSW186,562780824
02:00 AM61532222NoneSW206,562780824
01:45 AM61522021NoneSSW116,562780824
01:30 AM60532021NoneWSW176,562780824
01:15 AM60522021NoneSW76,562780824
01:00 AM58511922NoneSSW46,562781824
12:45 AM59521820NoneWSW126,562781824
12:30 AM60531819NoneWSW196,562781824
12:15 AM60531719NoneWSW246,562781824
12:00 AM61541718NoneWSW256,562780824
11:45 PM61541718NoneWSW296,562780824
11:30 PM61541617NoneWSW316,562781824
11:15 PM61541617NoneWSW216,562781824
11:00 PM61541516NoneWSW206,562781824
10:45 PM61541416NoneW226,562781824
10:30 PM61541415NoneWSW166,562782824
10:15 PM62541315NoneWSW166,562782824
10:00 PM62541314NoneWSW166,562782824
09:45 PM59531316NoneWSW196,562782824
09:30 PM52511119NoneSW126,562782824
09:15 PM52501119NoneSW76,562782824
09:00 PM53531118NoneSSW56,562782824
08:45 PM54531118NoneSW66,562782824
08:30 PM53521018NoneW66,562782824
08:15 PM56561015NoneN06,562782824
08:00 PM57561015NoneSW36,562782824
07:45 PM59551014NoneWSW46,562782824
07:30 PM5858914NoneN06,562783824
07:15 PM5757914NoneWSW56,562783824
07:00 PM6260812NoneWSW36,562783824
06:45 PM61601014NoneWSW36,562783824
06:30 PM63621113NoneW36,562783824
06:15 PM63631214NoneSSW26,562783824
06:00 PM65651212NoneWSW46,562783824
05:45 PM65681313NoneSW46,562783824
05:30 PM65691212NoneS46,562783824
05:15 PM66711112NoneW46,562783824
05:00 PM66721011NoneWSW66,562783824
04:45 PM66741112NoneSSW46,562784824
04:30 PM65751011NoneSE66,562784824
04:15 PM66771212NoneE46,562784824
04:00 PM66771313NoneESE56,562784824
03:45 PM66781413NoneESE76,562784824
03:30 PM66791615NoneSE66,562784824
03:15 PM66791816NoneE66,562784824
03:00 PM65781816NoneNE26,562784824
02:45 PM66781514NoneNE46,562784824
02:30 PM67821514NoneESE66,562785824
02:15 PM67821815NoneESE66,562785824
02:00 PM67821312NoneESE76,562785824
01:45 PM68871412NoneESE86,562785824
01:30 PM67841312NoneSE86,562785824
01:15 PM67851513NoneE96,562786824
01:00 PM67871815NoneENE86,562786824
12:45 PM67852017NoneENE96,562786824
12:30 PM65761716NoneNE76,562787824
12:15 PM65821313NoneNE76,562787824
12:00 PM66791514NoneENE76,562787824
11:45 AM66811514NoneNE66,562787824
11:30 AM65761715NoneNE56,562787824
11:15 AM64691615NoneN26,562788824
11:00 AM64661917NoneNE46,562788824
10:45 AM63641918NoneNE46,562788824
10:30 AM64641112NoneSSE36,562788824
10:15 AM64621415NoneNE36,562788824
10:00 AM62601113NoneSSW16,562788824
09:45 AM6159912NoneSW26,562788824
09:30 AM6056913NoneW26,562789824
09:15 AM58551015NoneW36,562789824
09:00 AM6054913NoneWSW46,562789824
08:45 AM5952813NoneWSW16,562789824
08:30 AM6051712NoneSW46,562789824
08:15 AM5950612NoneWSW46,562789824

Masonville

Current Conditions

Time10/18/2019 07:45 AM MST
Location40.4875,-105.2108
Elevation5,387 FT
Air Temp60°F
Surface Temp53°F
Dew Point Temp27°F
Relative Humidity28%
Visibility6,562 FT
Pressure820 MB
PrecipitationNone

Click a photo to enlarge.

185°4 mph
Wind from @ 4 mph

Past 24 Hours

All Data

Previous 24h observations for Masonville
Time Air Temp
(°F)
Surface
(°F)
Dew Point
(°F)
Relative
Humidity
Precip. Wind Direction Wind Speed (mph) Visibility (ft) Pressure
(mb)
07:45 AM60532728NoneS46,562820
07:30 AM57502630NoneSE36,562820
07:15 AM55522431NoneNW36,562820
07:00 AM55482430NoneW36,562820
06:45 AM57502529NoneNNE46,562820
06:30 AM60492627NoneNNW66,562820
06:15 AM60522526NoneENE56,562820
06:00 AM62512625NoneENE26,562820
05:45 AM61522526NoneWNW36,562820
05:30 AM60522526NoneENE36,562820
05:15 AM56532429NoneENE26,562820
05:00 AM55512430NoneS46,562820
04:45 AM54502330NoneNNW46,562820
04:30 AM53512331NoneENE16,562820
04:15 AM53512331NoneNNW36,562819
04:00 AM52512231NoneW36,562819
03:45 AM54502228NoneESE56,562820
03:30 AM53322229NoneNNW36,562820
03:15 AM54522228NoneNW26,562820
03:00 AM56522126NoneNE36,562820
02:45 AM57502125NoneNNW26,562820
02:30 AM57532125NoneN16,562820
02:15 AM58532124NoneWSW36,562820
02:00 AM63542221NoneE20820
01:45 AM64552220NoneNE56,562820
01:30 AM66552319NoneWNW26,562820
01:15 AM67572419NoneW116,562820
01:00 AM67572318NoneWSW66,562820
12:45 AM67572217NoneW86,562820
12:30 AM68572016NoneW96,562820
12:15 AM68582016NoneW156,562820
12:00 AM68582016NoneW176,562820
11:45 PM68581915NoneW176,562820
11:30 PM68581714NoneW166,562820
11:15 PM68571714NoneW176,562821
11:00 PM68571613NoneW146,562821
10:45 PM69571513NoneWNW116,562821
10:30 PM64581516NoneW126,562821
10:15 PM56531620NoneNE16,562822
10:00 PM58551418NoneNNW46,562822
09:45 PM57541519NoneENE26,562822
09:31 PM56561621NoneN46,562822
09:15 PM56561721NoneNNW46,562822
09:00 PM56561721NoneNNW76,562822
08:45 PM56561923NoneNNW66,562822
08:30 PM57572023NoneNNW36,562822
08:15 PM57582124NoneNNW46,562822
08:00 PM56582226NoneWNW36,562822
07:45 PM58582224NoneNW26,562822
07:30 PM60602424NoneNNW66,562822
07:15 PM61612424NoneNNW46,562822
07:03 PM61622424NoneNNW56,562822
06:45 PM64632422NoneNNW66,562822
06:30 PM326432NNW40822
06:15 PM66652521NoneNNW46,562822
06:00 PM69682116NoneNNW36,562822
05:45 PM32323213WNW30822
05:30 PM72711813NoneWNW36,562822
05:15 PM72731813NoneNE26,562823
05:00 PM72741914NoneESE26,562823
04:45 PM72761914NoneSSE26,562823
04:30 PM72772316NoneESE26,562823
04:15 PM72792416NoneSE46,562823
04:00 PM71812316NoneSSE56,562824
03:45 PM72822215NoneS56,562824
03:30 PM72841813NoneESE46,562824
03:15 PM72822215NoneESE26,562824
03:00 PM71832215NoneESE46,562824
02:45 PM72822114NoneSSE36,562824
02:30 PM72851612NoneS96,562824
02:15 PM73861511NoneSSE86,562824
02:00 PM73871410NoneSSE66,562825
01:45 PM73891712NoneSE46,562825
01:30 PM72881813NoneSSE96,562825
01:15 PM72321813NoneS86,562825
01:00 PM73922013NoneS86,562826
12:45 PM71872216NoneSSE66,562826
12:30 PM73881712NoneSSE86,562826
12:15 PM72831310NoneESE36,562826
12:00 PM71831311NoneSSE66,562827
11:45 AM70811512NoneSSW36,562827
11:30 AM68691815NoneSE26,562827
11:15 AM67661715NoneN06,562828
11:00 AM65651916NoneE26,562828
10:45 AM64641817NoneNNW36,562828
10:30 AM63641918NoneNW56,562828
10:15 AM61641819NoneNNW26,562828
10:00 AM59601921NoneNW26,562829
09:45 AM58592024NoneNNW26,562829
09:30 AM56561823NoneNE26,562829
09:15 AM55551925NoneSSE26,562829
08:45 AM56511721NoneESE26,562829
08:30 AM56511318NoneNNW56,562829
08:15 AM56501418NoneNNW26,562829

Time to refresh Minute(s) Second(s)